Regional Weather Roundup
Issued by NWS

Home | Current Version | Previous Version | Graphics & Text | Print | Product List | Glossary On
Versions: 1 2 3 4 5 6 7 8 9 10 11 12 13 14 15 16 17 18 19 20 21 22 23 24 25 26 27 28 29 30 31 32 33 34 35 36 37 38 39 40 41 42 43 44 45 46 47 48 49 50
000
ASUS43 KFSD 261602
RWRSD

WEATHER ROUNDUP FOR SOUTH DAKOTA
NATIONAL WEATHER SERVICE SIOUX FALLS SD
1100 AM CDT SUN APR 26 2015

NOTE: "FAIR" INDICATES FEW OR NO CLOUDS BELOW 12,000 FEET WITH NO
SIGNIFICANT WEATHER AND/OR OBSTRUCTIONS TO VISIBILITY.


SDZ001>005-009-010-012>017-261700-
NORTHWEST AND NORTH CENTRAL SOUTH DAKOTA

CITY           SKY/WX    TMP DP  RH WIND       PRES   REMARKS
BUFFALO          N/A     44  41  89 NE15      29.95R
FAITH            N/A     52  44  74 SE12      29.99R
MOBRIDGE       CLOUDY    56  37  49 SE14      30.02R
$$

SDZ012>016-024>037-041>051-057-063-072>074-261700-
SOUTHWEST AND SOUTH CENTRAL SOUTH DAKOTA

CITY           SKY/WX    TMP DP  RH WIND       PRES   REMARKS
RAPID CTY ARPT LGT RAIN  44  43  96 N13       29.97S FOG
PIERRE         PTSUNNY   56  43  61 E13G21    30.02R
CUSTER         LGT RAIN  41  39  93 NE8       29.94S FOG
ELLSWORTH AFB  LGT RAIN  44  44 100 N10       29.97R FOG
PHILIP         PTSUNNY   58  42  55 SE15      29.99R
PINE RIDGE     CLOUDY    47  42  83 E13       29.95S
WINNER         PTSUNNY   53  39  59 S14       30.03S
$$

SDZ004>011-016>023-039-040-261700-
NORTHEAST SOUTH DAKOTA

CITY           SKY/WX    TMP DP  RH WIND       PRES   REMARKS
ABERDEEN       SUNNY     60  36  40 S10       30.08S
WATERTOWN      SUNNY     56  38  50 VRB6      30.09R
BROOKINGS      SUNNY     55  37  50 SE7       30.09R
SISSETON         N/A     53  33  46 S6        30.11R
$$

SDZ017-020-022-023-036>040-048>070-261700-
SOUTHEAST SOUTH DAKOTA

CITY           SKY/WX    TMP DP  RH WIND       PRES   REMARKS
SIOUX FALLS    MOSUNNY   56  35  45 SE8       30.08S
HURON          SUNNY     57  34  41 SE12      30.07S
MITCHELL       SUNNY     56  37  49 SE12G21   30.08R
YANKTON        SUNNY     55  34  44 E15       30.06S
$$

ABBREVIATIONS USED IN REMARKS
   TC - TEMPERATURE IN CELSIUS
  WCI - WIND CHILL INDEX
   HX - HEAT INDEX
  VSB - VISIBILITY




USA.gov is the U.S. government's official web portal to all federal, state and local government web resources and services.